[[{"header":{"parameterUnit":"m.s-1","parameterCategory":1,"la1":30.2991,"la2":30.254,"lo1":-89.0895,"lo2":-89.0444,"dy":0.0017,"dx":0.0017,"nx":28,"ny":28,"refTime":"2025-01-03T09:00:00:Z","depth":0,"parameterNumber":2,"parameterNumberName":"U-component_of_WINDS"},"data":[0,0,0,0,0,0,0,0,0,0,0,0,0,0,0,0,0,0,0,0,0,0,0,0,0,0,0,0,0,0,0,0,0,0,0,0,0,0,0,0,0,0,0,0,0,0,0,0,0,0,0,0,0,0,0,0,0,0,-5.9929,-5.993,0,-5.9997,-5.9998,-5.9999,-5.9875,-5.9871,-5.9867,-5.9863,-5.9934,-5.994,-5.9945,0,0,0,0,0,0,0,0,0,0,0,0,0,-5.9695,-5.97,-5.9929,-5.993,-5.9931,-5.9997,-5.9998,-5.9999,-5.9876,-5.9871,-5.9866,-5.9861,-5.9932,-5.9939,-5.9946,0,0,0,0,0,0,0,0,0,0,0,0,0,-5.9783,-5.9701,-5.9929,-5.9878,-5.9874,-5.9997,-5.9998,-5.9999,-5.9877,-5.9871,-5.9865,-5.9859,-5.993,-5.9938,-5.9947,-6.0123,0,0,-5.9973,-5.9977,0,0,0,0,0,0,0,0,-5.9778,-5.9792,-5.9884,-5.9881,-5.9877,-5.9921,-5.9941,-6.0041,-5.9879,-5.9876,-5.9863,-5.9856,-5.9935,-5.9943,-5.9969,-6.0127,-6.013,-5.9974,-5.9979,-5.9983,-5.9985,0,0,0,0,0,0,0,-5.9772,-5.9788,-5.9956,-5.9886,-5.9882,-5.9852,-5.9857,-5.9959,-5.9939,-5.9876,-5.9867,-5.9877,-5.9932,-5.9961,-5.997,-6.0131,-5.9973,-5.9981,-5.9986,-5.999,-6.0435,-6.0441,0,0,0,0,0,0,-5.9772,-5.9784,-5.9954,-5.9958,-5.9811,-5.9861,-5.9867,-5.9914,-5.9938,-5.9936,-5.9882,-5.9871,-5.9949,-5.996,-5.9972,-6.0178,-5.9983,-5.9991,-5.9996,-6.0428,-6.0436,-6.0444,0,0,0,0,0,0,-5.9768,-5.9789,-5.9951,-5.9869,-5.9887,-5.9871,-5.9924,-5.9918,-5.9947,-5.9942,-5.9938,-5.9915,-5.9945,-5.996,-6.0086,-6.0179,-5.9994,-6.0002,-6.042,-6.0431,-6.044,-6.0593,0,0,0,0,0,0,-5.9762,-5.9788,-5.9854,-5.9871,-5.9892,-6.0064,-5.993,-5.9924,-5.9962,-5.9948,-5.9973,-5.9971,-5.9941,-6.0074,-6.0095,-6.0187,-6.0009,-6.0412,-6.0425,-6.0437,-6.0579,-6.0607,-6.063,0,0,0,0,0,-5.9754,-5.9895,-5.9858,-5.9879,-5.9975,-6.007,-6.0082,-6.0044,-5.997,-6.0037,-6.0034,-5.997,-6.0166,-6.0088,-6.011,-6.0207,-6.0406,-6.0421,-6.0436,-6.0568,-6.0601,-6.063,0,0,0,0,0,0,-5.989,-5.9896,-5.9855,-6.0007,-6.0039,-6.0049,-6.0131,-6.0081,-6.0135,-6.012,-6.0072,-6.0079,-6.0214,-6.0224,-6.0136,-6.0378,-6.0273,-6.0294,-6.0366,-6.0398,-6.0423,-6.0416,-6.0016,0,0,0,0,0,-5.9938,-6.0014,-6.0016,-6.0149,-6.0167,-6.0148,-6.0187,-6.0156,-6.0187,-6.02,-6.0206,-6.0239,-6.0308,-6.0354,-6.0417,-6.0582,-6.0584,-6.0659,-6.0685,-6.0705,-6.0722,-6.0808,-6.0841,-6.0493,-6.0493,-6.0492,0,0,-6.0037,-6.005,-6.0101,-6.0177,-6.0198,-6.0278,-6.0159,-6.0249,-6.0308,-6.0214,-6.0332,-6.0339,-6.0372,-6.0518,-6.0582,-6.053,-6.082,-6.0725,-6.0741,-6.0747,-6.0827,-6.086,-6.0889,-6.0503,-6.0501,-6.05,0,0,-6.0257,-6.0276,-6.0388,-6.0412,-6.0445,-6.0431,-6.0458,-6.0476,-6.0476,-6.0595,-6.0525,-6.0596,-6.0716,-6.0741,-6.0771,-6.1003,-6.0945,-6.1025,-6.1157,-6.1241,-6.1268,-6.1292,-6.1372,-6.1402,-6.1043,-6.1043,-6.1044,0,-6.0376,-6.0493,-6.0452,-6.0546,-6.0581,-6.0501,-6.0613,-6.0638,-6.0691,-6.0717,-6.0658,-6.0806,-6.0823,-6.0972,-6.1029,-6.1057,-6.1085,-6.102,-6.1268,-6.1291,-6.1313,-6.1389,-6.142,-6.1053,-6.1052,-6.1051,-6.105,0,-6.0636,-6.0719,-6.0806,-6.0857,-6.0903,-6.1006,-6.0981,-6.1032,-6.0998,-6.099,-6.1111,-6.113,-6.1194,-6.1228,-6.1196,-6.1373,-6.1339,-6.1276,-6.1168,-6.1356,-6.1426,-6.1455,-6.1066,-6.1062,-6.106,-6.1057,0,0,-6.0941,-6.097,-6.1002,-6.1024,-6.1056,-6.1119,-6.1219,-6.1282,-6.1325,-6.1366,-6.1447,-6.1551,-6.1491,-6.1525,-6.1495,-6.157,-6.1749,-6.1496,-6.1496,-6.1539,-6.1943,-6.1988,-6.2023,-6.1713,-6.1719,-6.1723,-6.1939,0,-6.1158,-6.1328,-6.1295,-6.1462,-6.1537,-6.1462,-6.1549,-6.1578,-6.1575,-6.1638,-6.1634,-6.1707,-6.1625,-6.1644,-6.1715,-6.1712,-6.1829,-6.1697,-6.1787,-6.1791,-6.1777,-6.206,-6.2108,-6.2311,-6.1967,-6.1972,-6.1975,0,-6.1432,-6.1481,-6.1656,-6.1674,-6.1704,-6.1783,-6.1837,-6.19,-6.1931,-6.1923,-6.1961,-6.1917,-6.2017,-6.1912,-6.2047,-6.1958,-6.1994,-6.1999,-6.2006,-6.2009,-6.1891,-6.2068,-6.2375,-6.2404,-6.2018,-6.2015,-6.2012,0,-6.1633,-6.1744,-6.1861,-6.1883,-6.1909,-6.1965,-6.1979,-6.2004,-6.2044,-6.2093,-6.2117,-6.2178,-6.221,-6.2258,-6.2232,-6.2158,-6.2371,-6.2264,-6.2366,-6.2367,-6.241,-6.2407,-6.2724,-6.2441,-6.244,-6.244,-6.2439,0,-6.1876,-6.1984,-6.1951,-6.2024,-6.2143,-6.2105,-6.2225,-6.2229,-6.2253,-6.2325,-6.2266,-6.2334,-6.2297,-6.2364,-6.2345,-6.2458,-6.2474,-6.247,-6.2462,-6.2473,-6.2473,-6.2492,-6.2476,-6.2448,-6.2446,-6.2444,-6.2443,0,-6.2118,-6.2101,-6.2224,-6.2239,-6.2245,-6.2332,-6.2345,-6.2412,-6.2405,-6.2496,-6.2516,-6.2504,-6.2579,-6.2559,-6.2641,-6.2627,-6.277,-6.2747,-6.2759,-6.2752,-6.2853,-6.2842,-6.319,-6.3232,-6.2925,-6.2928,-6.2931,0,-6.2272,-6.2354,-6.2377,-6.2421,-6.2438,-6.251,-6.255,-6.2516,-6.2561,-6.2603,-6.2665,-6.2735,-6.2788,-6.2911,-6.291,-6.2972,-6.2948,-6.3066,-6.2957,-6.2964,-6.2945,-6.2939,-6.2946,-6.3086,-6.309,-6.3092,-6.3095,0,-6.2546,-6.2533,-6.2593,-6.2651,-6.27,-6.2744,-6.2782,-6.2822,-6.2791,-6.2844,-6.2919,-6.2961,-6.3044,-6.3113,-6.317,-6.3184,-6.3134,-6.313,-6.3156,-6.3165,-6.3167,-6.3163,-6.2814,-6.3121,-6.3118,-6.3116,-6.3115,-6.3114,-6.2746,-6.2814,-6.2841,-6.291,-6.2935,-6.2973,-6.3036,-6.3037,-6.3099,-6.3163,-6.3141,-6.3226,-6.3256,-6.3327,-6.3349,-6.3416,-6.3371,-6.341,-6.3418,-6.3428,-6.3438,-6.316,-6.3427,-6.3426,-6.3425,-6.3425,-6.3424,0,-6.3013,-6.3027,-6.3091,-6.3146,-6.32,-6.315,-6.319,-6.3238,-6.3314,-6.3347,-6.34,-6.3487,-6.3554,-6.3559,-6.3622,-6.3675,-6.3653,-6.3692,-6.3686,-6.3689,-6.3477,-6.3446,-6.3708,-6.3708,-6.3708,-6.3708,-6.3708,-6.3708,-6.3158,-6.327,-6.3262,-6.3386,-6.3399,-6.3482,-6.3509,-6.3543,-6.3568,-6.3667,-6.3723,-6.3726,-6.3747,-6.3811,-6.3871,-6.387,-6.3895,-6.3942,-6.3933,-6.3733,-6.3705,-6.3677,-6.3648,-6.3948,-6.3949,-6.4139,-6.414,-6.4142]},{"header":{"parameterUnit":"m.s-1","parameterCategory":1,"la1":30.2991,"la2":30.254,"lo1":-89.0895,"lo2":-89.0444,"dy":0.0017,"dx":0.0017,"nx":28,"ny":28,"refTime":"2025-01-03T09:00:00:Z","depth":0,"parameterNumber":3,"parameterNumberName":"V-component_of_WINDS"},"data":[0,0,0,0,0,0,0,0,0,0,0,0,0,0,0,0,0,0,0,0,0,0,0,0,0,0,0,0,0,0,0,0,0,0,0,0,0,0,0,0,0,0,0,0,0,0,0,0,0,0,0,0,0,0,0,0,0,0,0.6113,0.6113,0,0.613,0.613,0.613,0.6099,0.6098,0.6097,0.6096,0.6113,0.6114,0.6116,0,0,0,0,0,0,0,0,0,0,0,0,0,0.6056,0.6057,0.6113,0.6113,0.6113,0.613,0.613,0.613,0.6099,0.6098,0.6096,0.6095,0.6113,0.6114,0.6116,0,0,0,0,0,0,0,0,0,0,0,0,0,0.6077,0.6058,0.6113,0.61,0.6099,0.613,0.613,0.613,0.6099,0.6098,0.6096,0.6095,0.6112,0.6114,0.6116,0.6161,0,0,0.6123,0.6124,0,0,0,0,0,0,0,0,0.6076,0.608,0.6101,0.6101,0.61,0.611,0.6116,0.614,0.6099,0.6099,0.6096,0.6094,0.6113,0.6115,0.6122,0.6162,0.6162,0.6123,0.6124,0.6125,0.6126,0,0,0,0,0,0,0,0.6075,0.6079,0.612,0.6102,0.6101,0.6094,0.6095,0.6121,0.6115,0.6099,0.6097,0.6099,0.6113,0.612,0.6122,0.6163,0.6123,0.6125,0.6126,0.6127,0.6243,0.6245,0,0,0,0,0,0,0.6075,0.6078,0.6119,0.612,0.6084,0.6096,0.6097,0.6109,0.6114,0.6114,0.61,0.6098,0.6117,0.612,0.6123,0.6178,0.6125,0.6127,0.6128,0.6241,0.6243,0.6245,0,0,0,0,0,0,0.6074,0.6079,0.6118,0.6098,0.6103,0.6099,0.6111,0.611,0.6117,0.6116,0.6114,0.6109,0.6116,0.612,0.6152,0.6178,0.6128,0.613,0.6239,0.6242,0.6244,0.6287,0,0,0,0,0,0,0.6072,0.6079,0.6095,0.6099,0.6104,0.6147,0.6113,0.6111,0.6121,0.6117,0.6123,0.6123,0.6115,0.6149,0.6154,0.618,0.6132,0.6237,0.624,0.6243,0.6283,0.6291,0.6297,0,0,0,0,0,0.607,0.6106,0.6096,0.6101,0.6124,0.6149,0.6152,0.6142,0.6123,0.614,0.6139,0.6122,0.6174,0.6153,0.6158,0.6185,0.6235,0.6239,0.6243,0.628,0.6289,0.6297,0,0,0,0,0,0,0.6104,0.6106,0.6095,0.6133,0.6141,0.6143,0.6164,0.6152,0.6165,0.6162,0.6149,0.6151,0.6187,0.6188,0.6165,0.623,0.6201,0.6207,0.6228,0.6236,0.6243,0.6243,0.6134,0,0,0,0,0,0.6116,0.6136,0.6136,0.6169,0.6174,0.6169,0.6179,0.6171,0.6179,0.6182,0.6184,0.6193,0.6211,0.6223,0.624,0.6283,0.6285,0.6304,0.6311,0.6317,0.6322,0.6348,0.6357,0.6259,0.6259,0.6258,0,0,0.6141,0.6144,0.6157,0.6176,0.6181,0.6203,0.6172,0.6195,0.6211,0.6186,0.6218,0.6219,0.6228,0.6267,0.6284,0.627,0.635,0.6322,0.6326,0.6329,0.6353,0.6363,0.6371,0.6261,0.6261,0.626,0,0,0.6198,0.6201,0.623,0.6237,0.6246,0.6243,0.625,0.6255,0.6255,0.6287,0.6269,0.6288,0.6319,0.6327,0.6336,0.6398,0.6384,0.6403,0.644,0.6466,0.6474,0.6481,0.6505,0.6514,0.6408,0.6408,0.6408,0,0.6227,0.6259,0.6247,0.6273,0.6283,0.6261,0.6292,0.6299,0.6313,0.632,0.6304,0.6345,0.6349,0.6391,0.6406,0.6413,0.6422,0.6403,0.6473,0.648,0.6486,0.651,0.6519,0.6411,0.6411,0.641,0.641,0,0.6296,0.6318,0.6341,0.6356,0.6369,0.6396,0.639,0.6404,0.6396,0.6394,0.6428,0.6433,0.6452,0.646,0.6451,0.6502,0.6493,0.6475,0.6447,0.6499,0.6521,0.6529,0.6415,0.6414,0.6413,0.6412,0,0,0.6375,0.6385,0.6393,0.6401,0.641,0.6428,0.6455,0.6474,0.6488,0.6498,0.6522,0.655,0.6535,0.6544,0.6536,0.6558,0.6611,0.6538,0.6538,0.6553,0.667,0.6685,0.6696,0.6601,0.6602,0.6603,0.667,0,0.6433,0.6481,0.6473,0.652,0.6542,0.6522,0.6547,0.6556,0.6556,0.6575,0.6575,0.6596,0.6572,0.6578,0.6599,0.66,0.6634,0.6594,0.6625,0.6626,0.6626,0.6707,0.6722,0.6785,0.6678,0.668,0.6681,0,0.6508,0.6523,0.6573,0.6581,0.659,0.6612,0.663,0.6647,0.6658,0.6656,0.6668,0.6657,0.6686,0.6656,0.6697,0.6671,0.6682,0.6685,0.6687,0.6691,0.6658,0.6716,0.6804,0.6815,0.6694,0.6693,0.6692,0,0.6564,0.6596,0.6631,0.6637,0.6647,0.6664,0.6669,0.6677,0.669,0.6706,0.6714,0.6732,0.6743,0.6758,0.6753,0.6731,0.6796,0.6765,0.6798,0.6798,0.6814,0.6813,0.6908,0.6817,0.6817,0.6817,0.6817,0,0.6631,0.6663,0.6656,0.6678,0.6714,0.6704,0.674,0.6742,0.6751,0.6774,0.6757,0.6779,0.6769,0.6791,0.6786,0.6823,0.6827,0.6828,0.6827,0.6831,0.6831,0.684,0.6837,0.682,0.6819,0.6819,0.6818,0,0.6701,0.6697,0.6734,0.6741,0.6743,0.677,0.6776,0.6797,0.6796,0.6825,0.6831,0.683,0.6855,0.685,0.6877,0.6874,0.6921,0.6913,0.6918,0.6917,0.6951,0.6949,0.7057,0.7072,0.6969,0.697,0.6971,0,0.6745,0.677,0.678,0.6794,0.68,0.6823,0.6836,0.6828,0.6842,0.6858,0.6877,0.6901,0.6919,0.696,0.6962,0.6983,0.6977,0.7014,0.698,0.6985,0.6981,0.6981,0.6985,0.7021,0.7022,0.7023,0.7024,0,0.6826,0.6823,0.6843,0.6863,0.688,0.6895,0.6908,0.6921,0.6914,0.6931,0.6957,0.6971,0.6999,0.7024,0.7044,0.705,0.7037,0.7034,0.7043,0.7049,0.7052,0.7054,0.6939,0.7032,0.7031,0.7031,0.703,0.703,0.6886,0.6908,0.6919,0.6943,0.6952,0.6966,0.6987,0.6989,0.701,0.7033,0.7026,0.7056,0.7068,0.7094,0.7102,0.7126,0.7113,0.7125,0.7129,0.7133,0.7138,0.7046,0.7129,0.7129,0.7129,0.7128,0.7128,0,0.6969,0.6975,0.6996,0.7017,0.7036,0.7021,0.7036,0.7053,0.7079,0.7091,0.711,0.7141,0.7165,0.7169,0.7192,0.7211,0.7206,0.7218,0.7218,0.722,0.7147,0.7139,0.7222,0.7222,0.7222,0.7222,0.7222,0.7222,0.7014,0.7051,0.705,0.7093,0.7099,0.7129,0.7139,0.7152,0.7162,0.7197,0.7217,0.722,0.723,0.7254,0.7276,0.7276,0.7287,0.7302,0.7301,0.7234,0.7224,0.7216,0.7207,0.7303,0.7304,0.7371,0.7372,0.7372]}]]